San Francisco, CA

2:18 PM PDT on September 21, 2014 (GMT -0700)
San Francisco International | Change Station
CLOSE
Current Station
Airport
Location: San Francisco,
Elevation: 16 ft
Nearby Weather Stations

Elev 16 ft 37.62 °N, 122.37 °W | Updated 22 minutes ago

Overcast
Overcast
70 °F
Feels Like 70 °F
N
12
Wind Variable Wind from West

Today
High -- | Low -- °F
--% Chance of Precip.
Yesterday
High -- | Low -- °F
Precip. -- in
6:56 AM 7:07 PM
Waning Crescent, 5% visible
Pressure 30.00 in
Visibility 10.0 miles
Clouds Few 1200 ft
Mostly Cloudy 1700 ft
Mostly Cloudy 2000 ft
Dew Point 61 °F
Humidity 73%
Rainfall 0.00 in
Snow Depth 0 in , 0 in , 0 in
UV 4 out of 12
Pollen 3.80 out of 12
Ozone Good
PM2.5 Good
Flu Activity Not available.
METAR KSFO 212056Z 26010KT 10SM FEW012 BKN017 BKN020 21/16 A3000 RMK AO2 SLP159 T02110161 58005 $

More Conditions Fewer Conditions

Pressure 30.00 in
Visibility 10.0 miles
Clouds Few 1200 ft
Mostly Cloudy 1700 ft
Mostly Cloudy 2000 ft
Dew Point 61 °F
Humidity 73%
Rainfall 0.00 in
Snow Depth 0 in , 0 in , 0 in
UV 4 out of 12
Pollen 3.80 out of 12
Ozone Good
PM2.5 Good
Flu Activity Not available.
METAR KSFO 212056Z 26010KT 10SM FEW012 BKN017 BKN020 21/16 A3000 RMK AO2 SLP159 T02110161 58005 $

More Conditions Fewer Conditions

10-Day Weather Forecast

Almanac

Astronomy

Sep. 21, 2014 Rise Set
Actual Time 6:56 AM PDT 7:07 PM PDT
Civil Twilight 6:30 AM PDT 7:33 PM PDT
Nautical Twilight 5:59 AM PDT 8:04 PM PDT
Astronomical Twilight 5:28 AM PDT 8:35 PM PDT
Moon 4:37 AM PDT 5:45 PM PDT
Length of Visible Light 13h 03m
Length of Day
12h 11m
Tomorrow will be 2m 25s shorter.
Waning Crescent, 5% of the Moon is Illuminated
Today
Waning Crescent
Sep 24
New
Oct 1
First Quarter
Oct 8
Full
Oct 15
Last Quarter

Today's Extremes

State Highs State Lows

Community

WunderPhotos

Upload Photos

1,755,259 photos uploaded!

Nearby

Air Quality

  Air Quality AQ Index Pollutant
Yesterday Good
PM2.5
Yesterday Good
OZONE
Current Good
PM2.5
Current Good
OZONE
Sunday Moderate
PM2.5
Monday Good
PM2.5
Tuesday Good
PM2.5
Wednesday Good
OZONE
Thursday Good
OZONE
Friday Good
OZONE

Snow Depth

Station Depth Elevation
Adin Mountain 0 in 6200 ft
Rubicon #2 0 in 7500 ft
Fallen Leaf 0 in 6300 ft
Burnside Lake 0 in 8139 ft
Squaw Valley 0 in 8200 ft

Earthquake Activity

City Distance Mag. Time & Date
Sonoma, California 49 miles 2.7 1:17 PM PDT
2014-09-21
Cloverdale, California 88 miles 2.5 9:15 PM PDT
2014-09-20
Livermore, California 35 miles 2.6 3:37 AM PDT
2014-09-19
The Geysers, California 80 miles 2.5 11:29 PM PDT
2014-09-17
Minimum magnitude displayed is 2.5.

Coastal Water Temperatures

Place Temperature
No Stations Reporting

Nearby Weather Stations